Location: Cuiry
(49.3858°N, 3.7708°E)
Time: 14:03:38
(UTC+00:00)

Cosmos 2237 Rocket - Pass Details

Date: 12 January 2026
Orbit: 834 x 849 km, 71.0° (Epoch: 16 February)

Event Time Altitude Azimuth Distance (km) Brightness Sun altitude
Rises 17:46:33 0° 257° (WSW) 3,378 7.3 -15.1°
Reaches altitude 10° 17:49:39 10° 274° (W) 2,448 5.8 -15.6°
Maximum altitude 17:53:44 20° 321° (NW) 1,835 4.2 -16.3°
Drops below altitude 10° 17:57:51 10° 9° (N) 2,459 4.4 -16.9°
Enters shadow 17:59:17 - 18° (NNE) 2,863 4.7 -17.1°
